DROID.002

operational
NORAD ID: 63223 Int'l Des: 2025-052 Owner: TURION Country: US
LEOCIRCULARRETROGRADESSO

DROID.002について

説明を読み込み中...

リアルタイム位置

3D地球を読み込み中...

次回通過

高度履歴

Altitude vs Time

uPlot chart will show altitude changes over time

軌道要素

1 63223U 25052P 25341.16582296 .00011591 00000-0 53221-3 0 9997
2 63223 97.4129 231.9988 0006195 87.1466 273.0478 15.20540745 40663
Epoch: Dec 7, 2025 • Age: 18 hours

現在のステータス

高度 508.9 km
速度 7.61 km/s
衛星直下点 -5.30°S, 2.66°E
打ち上げ日 Mar 15, 2025
運用期間 0.7 years
タイプ other

技術仕様

分類 Payload
質量 90.00 kg
乾燥質量 90.00 kg
総質量 90.00 kg
長さ 0.80 m
直径 0.60 m
スパン 2.00 m
形状 Box + 2 pan
製造者 TURION
バスタイプ Droid
フェーズステータス In Orbit
所有者/国 TURION/US

大規模コンステレーション

Loading constellations...